• In Russia
  • List of Countries
  • For 7 days
  • Water Temperature
  • Satellite Maps
  • Weather Map
  • Weather Widgets
  • user-avatar
    Login

    Hourly Weather Adelaide

    Today, 30 May, Tuesday

    Time Temperature Precipitation Wind Pressure Humidity
    00:00 +13°C° 0 mm 3 mps 763 mmHg 85%
    01:00 +12°C° 0.1 mm 4 mps 764 mmHg 86%
    02:00 +12°C° 0.1 mm 4 mps 764 mmHg 87%
    03:00 +12°C° 0 mm 4 mps 764 mmHg 88%
    04:00 +12°C° 0 mm 4 mps 764 mmHg 85%
    05:00 +12°C° 0 mm 4 mps 765 mmHg 82%
    06:00 +12°C° 0 mm 4 mps 765 mmHg 79%
    07:00 +13°C° 0 mm 4 mps 766 mmHg 73%
    08:00 +13°C° 0 mm 5 mps 766 mmHg 67%
    09:00 +13°C° 0 mm 5 mps 767 mmHg 60%
    10:00 +14°C° 0 mm 5 mps 767 mmHg 57%
    11:00 +14°C° 0 mm 4 mps 768 mmHg 54%
    12:00 +14°C° 0 mm 4 mps 768 mmHg 51%
    13:00 +14°C° 0 mm 4 mps 768 mmHg 51%
    14:00 +13°C° 0 mm 4 mps 768 mmHg 50%
    15:00 +13°C° 0 mm 4 mps 768 mmHg 50%
    16:00 +12°C° 0 mm 4 mps 768 mmHg 54%
    17:00 +11°C° 0 mm 3 mps 769 mmHg 59%
    18:00 +10°C° 0 mm 3 mps 769 mmHg 64%
    19:00 +10°C° 0 mm 3 mps 769 mmHg 65%
    20:00 +10°C° 0 mm 3 mps 770 mmHg 66%
    21:00 +9°C° 0 mm 2 mps 770 mmHg 67%
    22:00 +9°C° 0 mm 2 mps 770 mmHg 70%
    23:00 +8°C° 0 mm 2 mps 771 mmHg 73%

    Tomorrow, 31 May, Wednesday

    Time Temperature Precipitation Wind Pressure Humidity
    00:00 +8°C° 0 mm 2 mps 771 mmHg 76%
    01:00 +7°C° 0 mm 2 mps 771 mmHg 78%
    02:00 +7°C° 0 mm 2 mps 771 mmHg 80%
    03:00 +6°C° 0 mm 2 mps 771 mmHg 82%
    04:00 +6°C° 0 mm 2 mps 771 mmHg 82%
    05:00 +6°C° 0 mm 2 mps 771 mmHg 82%
    06:00 +6°C° 0 mm 2 mps 772 mmHg 82%
    07:00 +7°C° 0 mm 2 mps 772 mmHg 73%
    08:00 +9°C° 0 mm 2 mps 773 mmHg 65%
    09:00 +12°C° 0 mm 2 mps 773 mmHg 56%
    10:00 +13°C° 0 mm 2 mps 773 mmHg 52%
    11:00 +14°C° 0 mm 2 mps 773 mmHg 48%
    12:00 +15°C° 0 mm 2 mps 772 mmHg 45%
    13:00 +15°C° 0 mm 1 mps 772 mmHg 45%
    14:00 +15°C° 0 mm 1 mps 772 mmHg 45%
    15:00 +15°C° 0 mm 1 mps 772 mmHg 45%
    16:00 +13°C° 0 mm 1 mps 772 mmHg 51%
    17:00 +12°C° 0 mm 2 mps 772 mmHg 57%
    18:00 +9°C° 0 mm 2 mps 773 mmHg 63%
    19:00 +9°C° 0 mm 2 mps 773 mmHg 65%
    20:00 +8°C° 0 mm 2 mps 773 mmHg 66%
    21:00 +8°C° 0 mm 2 mps 773 mmHg 67%
    22:00 +8°C° 0 mm 2 mps 773 mmHg 69%
    23:00 +8°C° 0 mm 2 mps 773 mmHg 71%

    Day after tomorrow, 1 June, Thursday

    Time Temperature Precipitation Wind Pressure Humidity
    00:00 +7°C° 0 mm 2 mps 773 mmHg 72%
    01:00 +7°C° 0 mm 2 mps 773 mmHg 73%
    02:00 +7°C° 0 mm 3 mps 773 mmHg 74%
    03:00 +7°C° 0 mm 3 mps 773 mmHg 75%
    04:00 +5°C° 0 mm 3 mps 773 mmHg 76%
    05:00 +5°C° 0 mm 3 mps 773 mmHg 77%
    06:00 +5°C° 0 mm 3 mps 773 mmHg 78%
    07:00 +7°C° 0 mm 3 mps 774 mmHg 72%
    08:00 +9°C° 0 mm 3 mps 774 mmHg 65%
    09:00 +10°C° 0 mm 3 mps 774 mmHg 59%
    10:00 +12°C° 0 mm 3 mps 774 mmHg 54%
    11:00 +14°C° 0 mm 2 mps 773 mmHg 50%
    12:00 +15°C° 0 mm 2 mps 773 mmHg 45%
    13:00 +15°C° 0 mm 2 mps 773 mmHg 44%
    14:00 +15°C° 0 mm 2 mps 772 mmHg 43%
    15:00 +16°C° 0 mm 1 mps 772 mmHg 43%
    16:00 +13°C° 0 mm 1 mps 772 mmHg 51%
    17:00 +11°C° 0 mm 1 mps 772 mmHg 58%
    18:00 +9°C° 0 mm 1 mps 772 mmHg 66%
    19:00 +8°C° 0 mm 2 mps 773 mmHg 66%
    20:00 +8°C° 0 mm 2 mps 773 mmHg 66%
    21:00 +8°C° 0 mm 2 mps 773 mmHg 66%
    22:00 +8°C° 0 mm 2 mps 773 mmHg 66%
    23:00 +8°C° 0 mm 2 mps 773 mmHg 65%

    2 June, Friday

    Time Temperature Precipitation Wind Pressure Humidity
    00:00 +8°C° 0 mm 2 mps 773 mmHg 65%
    01:00 +8°C° 0 mm 2 mps 772 mmHg 66%
    02:00 +7°C° 0 mm 2 mps 772 mmHg 67%
    03:00 +7°C° 0 mm 2 mps 772 mmHg 68%
    04:00 +7°C° 0 mm 2 mps 772 mmHg 68%
    05:00 +7°C° 0 mm 2 mps 772 mmHg 68%
    06:00 +7°C° 0 mm 2 mps 773 mmHg 68%
    07:00 +8°C° 0 mm 2 mps 773 mmHg 62%
    08:00 +10°C° 0 mm 2 mps 773 mmHg 56%
    09:00 +12°C° 0 mm 2 mps 774 mmHg 51%
    10:00 +14°C° 0 mm 2 mps 773 mmHg 46%
    11:00 +15°C° 0 mm 2 mps 773 mmHg 42%
    12:00 +17°C° 0 mm 2 mps 772 mmHg 37%
    13:00 +18°C° 0 mm 1 mps 772 mmHg 37%
    14:00 +18°C° 0 mm 1 mps 772 mmHg 37%
    15:00 +18°C° 0 mm 1 mps 771 mmHg 37%
    16:00 +14°C° 0 mm 1 mps 771 mmHg 46%
    17:00 +12°C° 0 mm 1 mps 771 mmHg 56%
    18:00 +9°C° 0 mm 1 mps 772 mmHg 66%
    19:00 +9°C° 0 mm 1 mps 772 mmHg 65%
    20:00 +9°C° 0 mm 2 mps 772 mmHg 64%
    21:00 +9°C° 0 mm 2 mps 772 mmHg 63%
    22:00 +8°C° 0 mm 2 mps 772 mmHg 63%
    23:00 +8°C° 0 mm 2 mps 772 mmHg 63%

    3 June, Saturday

    Time Temperature Precipitation Wind Pressure Humidity
    00:00 +8°C° 0 mm 2 mps 771 mmHg 64%
    01:00 +8°C° 0 mm 2 mps 771 mmHg 64%
    02:00 +8°C° 0 mm 2 mps 771 mmHg 65%
    03:00 +7°C° 0 mm 2 mps 771 mmHg 65%
    04:00 +7°C° 0 mm 2 mps 771 mmHg 65%
    05:00 +7°C° 0 mm 2 mps 771 mmHg 66%
    06:00 +7°C° 0 mm 2 mps 771 mmHg 66%
    07:00 +8°C° 0 mm 2 mps 771 mmHg 60%
    08:00 +10°C° 0 mm 2 mps 771 mmHg 54%
    09:00 +11°C° 0 mm 3 mps 772 mmHg 48%
    10:00 +14°C° 0 mm 2 mps 771 mmHg 44%
    11:00 +15°C° 0 mm 2 mps 771 mmHg 39%
    12:00 +17°C° 0 mm 2 mps 770 mmHg 34%
    13:00 +17°C° 0 mm 2 mps 770 mmHg 34%
    14:00 +18°C° 0 mm 1 mps 769 mmHg 33%
    15:00 +18°C° 0 mm 1 mps 768 mmHg 33%
    16:00 +14°C° 0 mm 1 mps 769 mmHg 42%
    17:00 +12°C° 0 mm 1 mps 769 mmHg 51%
    18:00 +9°C° 0 mm 1 mps 769 mmHg 60%
    19:00 +10°C° 0 mm 1 mps 769 mmHg 58%
    20:00 +9°C° 0 mm 2 mps 769 mmHg 55%
    21:00 +9°C° 0 mm 2 mps 769 mmHg 53%
    22:00 +9°C° 0 mm 2 mps 768 mmHg 53%
    23:00 +9°C° 0 mm 2 mps 768 mmHg 53%

    4 June, Sunday

    Time Temperature Precipitation Wind Pressure Humidity
    00:00 +8°C° 0 mm 2 mps 768 mmHg 53%
    01:00 +8°C° 0 mm 2 mps 767 mmHg 54%
    02:00 +8°C° 0 mm 2 mps 767 mmHg 55%
    03:00 +8°C° 0 mm 2 mps 767 mmHg 55%
    04:00 +8°C° 0 mm 2 mps 767 mmHg 56%
    05:00 +7°C° 0 mm 2 mps 767 mmHg 57%
    06:00 +7°C° 0 mm 2 mps 767 mmHg 57%
    07:00 +9°C° 0 mm 2 mps 767 mmHg 53%
    08:00 +10°C° 0 mm 2 mps 767 mmHg 49%
    09:00 +13°C° 0 mm 2 mps 767 mmHg 45%
    10:00 +14°C° 0 mm 2 mps 766 mmHg 43%
    11:00 +16°C° 0 mm 2 mps 766 mmHg 41%
    12:00 +17°C° 0 mm 2 mps 765 mmHg 39%
    13:00 +17°C° 0 mm 2 mps 765 mmHg 39%
    14:00 +17°C° 0 mm 2 mps 764 mmHg 39%
    15:00 +17°C° 0 mm 2 mps 764 mmHg 39%
    16:00 +15°C° 0 mm 2 mps 764 mmHg 44%
    17:00 +14°C° 0 mm 2 mps 764 mmHg 50%
    18:00 +12°C° 0 mm 2 mps 764 mmHg 55%
    19:00 +12°C° 0 mm 2 mps 764 mmHg 56%
    20:00 +10°C° 0 mm 2 mps 764 mmHg 56%
    21:00 +10°C° 0 mm 2 mps 764 mmHg 57%
    22:00 +10°C° 0 mm 2 mps 763 mmHg 57%
    23:00 +10°C° 0 mm 2 mps 763 mmHg 57%
    Show more